| time (UTC) | temp F | wind direction | speed knots | gust knots | rain 1hr in | rain 24hr in | rain mn in | humidity % | barometer mb |
| 20260510143028 | 74 | 77 | 0.0 | 4.3 | 0.00 | 0.00 | 0.00 | 57 | 1013.2 |
| 20260510141525 | 73 | 92 | 0.0 | 1.7 | 0.00 | 0.00 | 0.00 | 58 | 1013.2 |
| 20260510140023 | 72 | 216 | 0.9 | 3.5 | 0.00 | 0.00 | 0.00 | 58 | 1013.3 |
| 20260510134519 | 72 | 255 | 0.0 | 2.6 | 0.00 | 0.00 | 0.00 | 59 | 1013.3 |
| 20260510133016 | 69 | 41 | 0.0 | 1.7 | 0.00 | 0.00 | 0.00 | 66 | 1013.3 |
| 20260510131511 | 67 | 37 | 0.0 | 1.7 | 0.00 | 0.00 | 0.00 | 68 | 1013.3 |
| 20260510130007 | 67 | 116 | 0.0 | 1.7 | 0.00 | 0.00 | 0.00 | 71 | 1013.6 |
| 20260510124503 | 65 | 68 | 0.0 | 1.7 | 0.00 | 0.00 | 0.00 | 72 | 1013.6 |
| 20260510123101 | 64 | 84 | 0.0 | 1.7 | 0.00 | 0.00 | 0.00 | 75 | 1013.6 |
| 20260510121557 | 63 | 27 | 0.0 | 1.7 | 0.00 | 0.00 | 0.00 | 77 | 1013.6 |
| 20260510120051 | 61 | 64 | 0.0 | 1.7 | 0.00 | 0.00 | 0.00 | 79 | 1013.4 |
| 20260510114556 | 60 | 58 | 0.0 | 0.0 | 0.00 | 0.00 | 0.00 | 81 | 1013.3 |
| 20260510113044 | 56 | 58 | 0.0 | 1.7 | 0.00 | 0.00 | 0.00 | 87 | 1013.2 |
| 20260510111539 | 54 | 58 | 0.0 | 0.9 | 0.00 | 0.00 | 0.00 | 91 | 1012.8 |
| 20260510110041 | 51 | 58 | 0.0 | 1.7 | 0.00 | 0.00 | 0.00 | 94 | 1012.6 |
| 20260510104523 | 50 | 99 | 0.0 | 0.0 | 0.00 | 0.00 | 0.00 | 93 | 1012.2 |
| 20260510103020 | 49 | 99 | 0.0 | 1.7 | 0.00 | 0.00 | 0.00 | 93 | 1012.0 |
| 20260510101517 | 49 | 99 | 0.0 | 1.7 | 0.00 | 0.00 | 0.00 | 92 | 1011.9 |
| 20260510100016 | 49 | 99 | 0.0 | 0.0 | 0.00 | 0.00 | 0.00 | 92 | 1011.9 |
| 20260510094516 | 49 | 99 | 0.0 | 1.7 | 0.00 | 0.00 | 0.00 | 92 | 1011.9 |
| 20260510093016 | 50 | 99 | 0.0 | 0.0 | 0.00 | 0.00 | 0.00 | 92 | 1011.9 |
| 20260510091511 | 50 | 99 | 0.0 | 0.0 | 0.00 | 0.00 | 0.00 | 92 | 1011.7 |
| 20260510090010 | 50 | 99 | 0.0 | 1.7 | 0.00 | 0.00 | 0.00 | 92 | 1011.5 |
| 20260510084511 | 51 | 99 | 0.0 | 0.0 | 0.00 | 0.00 | 0.00 | 93 | 1011.3 |
| 20260510083007 | 50 | 99 | 0.0 | 0.0 | 0.00 | 0.00 | 0.00 | 92 | 1011.4 |
| 20260510081504 | 51 | 99 | 0.0 | 0.0 | 0.00 | 0.00 | 0.00 | 92 | 1011.1 |
| 20260510080003 | 51 | 99 | 0.0 | 1.7 | 0.00 | 0.00 | 0.00 | 92 | 1010.7 |
| 20260510074624 | 51 | 99 | 0.0 | 0.9 | 0.00 | 0.00 | 0.00 | 92 | 1010.6 |
| 20260510073058 | 52 | 99 | 0.0 | 0.0 | 0.00 | 0.00 | 0.00 | 92 | 1010.5 |
| 20260510071601 | 52 | 99 | 0.0 | 1.7 | 0.00 | 0.00 | 0.00 | 92 | 1010.5 |
| 20260510070054 | 53 | 99 | 0.0 | 1.7 | 0.00 | 0.00 | 0.00 | 91 | 1010.5 |
| 20260510064608 | 53 | 87 | 0.0 | 1.7 | 0.00 | 0.00 | 0.00 | 91 | 1010.3 |
| 20260510063057 | 53 | 87 | 0.0 | 1.7 | 0.00 | 0.00 | 0.00 | 91 | 1010.3 |
| 20260510061549 | 54 | 87 | 0.0 | 0.0 | 0.00 | 0.00 | 0.00 | 91 | 1010.3 |
| 20260510060055 | 54 | 87 | 0.0 | 1.7 | 0.00 | 0.00 | 0.00 | 91 | 1010.2 |
| 20260510054547 | 54 | 87 | 0.0 | 0.0 | 0.00 | 0.00 | 0.00 | 91 | 1010.3 |
| 20260510053045 | 54 | 87 | 0.0 | 0.0 | 0.00 | 0.00 | 0.00 | 90 | 1010.2 |
| 20260510051553 | 55 | 87 | 0.0 | 0.0 | 0.00 | 0.00 | 0.00 | 90 | 1010.3 |
| 20260510050043 | 55 | 87 | 0.0 | 0.0 | 0.00 | 0.00 | 0.00 | 90 | 1010.4 |
| 20260510044542 | 55 | 87 | 0.0 | 0.0 | 0.00 | 0.00 | 0.00 | 89 | 1010.4 |
| 20260510043047 | 56 | 87 | 0.0 | 0.0 | 0.00 | 0.00 | 0.00 | 89 | 1010.5 |
| 20260510041549 | 56 | 87 | 0.0 | 0.0 | 0.00 | 0.00 | 0.00 | 89 | 1010.4 |
| 20260510040039 | 57 | 87 | 0.0 | 0.0 | 0.00 | 0.00 | 0.00 | 88 | 1010.3 |
| 20260510034533 | 57 | 87 | 0.0 | 0.0 | 0.00 | 0.00 | 0.00 | 87 | 1010.3 |
| 20260510033034 | 58 | 87 | 0.0 | 1.7 | 0.00 | 0.00 | 0.00 | 87 | 1010.3 |
| 20260510031532 | 58 | 87 | 0.0 | 0.0 | 0.00 | 0.00 | 0.00 | 85 | 1010.2 |
| 20260510030031 | 59 | 87 | 0.0 | 1.7 | 0.00 | 0.00 | 0.00 | 85 | 1010.2 |
| 20260510024530 | 60 | 87 | 0.0 | 1.7 | 0.00 | 0.00 | 0.00 | 83 | 1010.0 |
| 20260510023029 | 60 | 87 | 0.0 | 1.7 | 0.00 | 0.00 | 0.00 | 82 | 1010.0 |
| 20260510021532 | 60 | 124 | 0.0 | 1.7 | 0.00 | 0.00 | 0.00 | 82 | 1010.1 |
| 20260510020029 | 60 | 124 | 0.0 | 1.7 | 0.00 | 0.00 | 0.00 | 82 | 1010.0 |
| 20260510014529 | 60 | 113 | 0.0 | 1.7 | 0.00 | 0.00 | 0.00 | 82 | 1009.7 |
| 20260510013029 | 61 | 116 | 0.0 | 1.7 | 0.00 | 0.00 | 0.00 | 82 | 1009.5 |
| 20260510011534 | 61 | 64 | 0.0 | 1.7 | 0.00 | 0.00 | 0.00 | 80 | 1009.4 |
| 20260510010035 | 62 | 74 | 0.0 | 0.0 | 0.00 | 0.00 | 0.00 | 76 | 1009.4 |
| 20260510004523 | 63 | 74 | 0.0 | 0.0 | 0.00 | 0.00 | 0.00 | 74 | 1009.2 |
| 20260510003024 | 64 | 60 | 0.0 | 1.7 | 0.00 | 0.00 | 0.00 | 72 | 1009.0 |
| 20260510001525 | 65 | 95 | 0.0 | 1.7 | 0.00 | 0.00 | 0.00 | 69 | 1008.9 |
| 20260510000021 | 66 | 130 | 0.0 | 1.7 | 0.00 | 0.00 | 0.00 | 66 | 1008.9 |
| 20260509234524 | 67 | 112 | 1.7 | 3.5 | 0.00 | 0.00 | 0.00 | 65 | 1008.6 |
| 20260509233019 | 67 | 93 | 0.9 | 3.5 | 0.00 | 0.00 | 0.00 | 66 | 1008.5 |
| 20260509231528 | 68 | 60 | 0.0 | 1.7 | 0.00 | 0.00 | 0.00 | 67 | 1008.5 |
| 20260509230019 | 69 | 89 | 0.9 | 3.5 | 0.00 | 0.00 | 0.00 | 64 | 1008.5 |
| 20260509224517 | 69 | 49 | 0.9 | 3.5 | 0.00 | 0.00 | 0.00 | 65 | 1008.4 |
| 20260509223021 | 69 | 32 | 0.0 | 1.7 | 0.00 | 0.00 | 0.00 | 65 | 1008.5 |
| 20260509221529 | 70 | 54 | 0.0 | 2.6 | 0.00 | 0.00 | 0.00 | 65 | 1008.5 |
| 20260509220019 | 70 | 137 | 0.0 | 1.7 | 0.00 | 0.00 | 0.00 | 65 | 1008.6 |
| 20260509214516 | 70 | 107 | 0.9 | 3.5 | 0.00 | 0.00 | 0.00 | 65 | 1008.5 |
| 20260509213014 | 69 | 18 | 0.0 | 1.7 | 0.00 | 0.00 | 0.00 | 65 | 1008.6 |
| 20260509211514 | 69 | 343 | 0.0 | 4.3 | 0.00 | 0.00 | 0.00 | 65 | 1008.6 |
| 20260509210015 | 69 | 125 | 0.9 | 1.7 | 0.00 | 0.00 | 0.00 | 65 | 1008.4 |
| 20260509204511 | 69 | 44 | 1.7 | 3.5 | 0.00 | 0.00 | 0.00 | 66 | 1008.3 |
| 20260509203009 | 69 | 115 | 0.9 | 4.3 | 0.00 | 0.00 | 0.00 | 68 | 1008.3 |
| 20260509201507 | 68 | 122 | 0.9 | 5.2 | 0.00 | 0.00 | 0.00 | 69 | 1008.7 |
| 20260509200005 | 67 | 95 | 1.7 | 7.8 | 0.00 | 0.00 | 0.00 | 70 | 1008.9 |
| 20260509194501 | 67 | 116 | 0.0 | 2.6 | 0.00 | 0.00 | 0.00 | 66 | 1009.1 |
| 20260509193001 | 69 | 239 | 0.0 | 1.7 | 0.00 | 0.00 | 0.00 | 63 | 1009.3 |
| 20260509191616 | 69 | 69 | 0.0 | 1.7 | 0.00 | 0.00 | 0.00 | 61 | 1009.2 |
| 20260509190112 | 68 | 109 | 0.9 | 2.6 | 0.00 | 0.00 | 0.00 | 64 | 1009.4 |
| 20260509184555 | 68 | 91 | 0.0 | 1.7 | 0.00 | 0.00 | 0.00 | 59 | 1009.9 |
| 20260509183055 | 69 | 99 | 0.0 | 1.7 | 0.00 | 0.00 | 0.00 | 56 | 1009.9 |
| 20260509181555 | 69 | 37 | 0.0 | 1.7 | 0.00 | 0.00 | 0.00 | 56 | 1009.9 |
| 20260509180052 | 69 | 143 | 0.0 | 2.6 | 0.00 | 0.00 | 0.00 | 56 | 1010.3 |
| 20260509174551 | 69 | 80 | 0.0 | 1.7 | 0.00 | 0.00 | 0.00 | 58 | 1010.3 |
| 20260509173057 | 69 | 222 | 0.0 | 1.7 | 0.00 | 0.00 | 0.00 | 56 | 1010.3 |
| 20260509171605 | 68 | 27 | 0.0 | 2.6 | 0.00 | 0.00 | 0.00 | 56 | 1010.4 |
| 20260509170050 | 68 | 97 | 1.7 | 4.3 | 0.00 | 0.00 | 0.00 | 54 | 1010.4 |
| 20260509164552 | 69 | 114 | 0.0 | 6.1 | 0.00 | 0.00 | 0.00 | 53 | 1010.3 |
| 20260509163054 | 70 | 350 | 0.0 | 2.6 | 0.00 | 0.00 | 0.00 | 54 | 1010.3 |
| 20260509161546 | 70 | 349 | 0.9 | 5.2 | 0.00 | 0.00 | 0.00 | 54 | 1010.4 |
| 20260509160044 | 71 | 74 | 0.0 | 5.2 | 0.00 | 0.00 | 0.00 | 55 | 1010.6 |
| 20260509154544 | 70 | 111 | 1.7 | 5.2 | 0.00 | 0.00 | 0.00 | 55 | 1010.8 |
| 20260509153042 | 69 | 326 | 1.7 | 5.2 | 0.00 | 0.00 | 0.00 | 57 | 1010.8 |
| 20260509151537 | 69 | 124 | 1.7 | 6.1 | 0.00 | 0.00 | 0.00 | 59 | 1011.1 |
| 20260509150034 | 67 | 345 | 0.0 | 3.5 | 0.00 | 0.00 | 0.00 | 61 | 1011.3 |
| 20260509144530 | 67 | 114 | 0.0 | 2.6 | 0.00 | 0.00 | 0.00 | 64 | 1011.7 |